Home   Weather   King   Past weeks
Flag for USA

Past Weather in King, North Carolina, USA — Yesterday and Last 2 Weeks

Now
54 °F

Clear.


Feels Like: 54 °F
Forecast: 67 / 41 °F
Wind: 3 mph from North

Location: Smith Reynolds Airport

Current Time: Oct 17, 2019 at 10:02:13 pm

Latest Report: Oct 17, 2019 at 8:54 pm


Visibility: 10 mi

Pressure: 29.93 "Hg

Humidity: 51%

Dew Point: 36 °F

Location of KingLocation

Past Weather in King — Graph

°F

King Temperature Yesterday

Maximum temperature yesterday: 66 °F (at 3:54 pm)
Minimum temperature yesterday: 52 °F (at 11:54 pm)
Average temperature yesterday: 56 °F

High & Low Weather Summary for the Past Weeks

 TemperatureHumidityPressure
High95 °F (Oct 3, 4:54 pm)100% (Oct 14, 12:54 am)30.32 "Hg (Oct 14, 12:54 am)
Low44 °F (Oct 17, 6:54 am)22% (Oct 4, 5:54 pm)29.66 "Hg (Oct 16, 1:54 pm)
Average64 °F69%30.06 "Hg
* Reported Oct 2 7:54 pm — Oct 17 7:54 pm, King. Weather by CustomWeather, © 2019

Note: Actual official high and low records may vary slightly from our data, if they occured in-between our weather recording intervals... More about our weather records

Advertising

King Weather History for the Previous 24 Hours

Scroll right to see more
 ConditionsComfort  
Time TempWeatherWind HumidityBarometerVisibility
7:54 pm
Thu, Oct 17
57 °FClear.5 mph44%29.90 "Hg10 mi
7:18 pm58 °FClear.5 mph41%29.89 "Hg10 mi
6:54 pm59 °FRefreshingly cool.6 mph39%29.87 "Hg10 mi
5:54 pm62 °FSunny.8 mph32%29.85 "Hg10 mi
4:54 pm63 °FSunny.12 mph31%29.85 "Hg10 mi
3:54 pm62 °FSunny.13 mph34%29.85 "Hg10 mi
2:54 pm62 °FSunny.9 mph35%29.86 "Hg10 mi
1:54 pm60 °FSunny.9 mph36%29.88 "Hg10 mi
12:54 pm59 °FSunny.9 mph38%29.89 "Hg10 mi
11:54 am57 °FSunny.14 mph41%29.91 "Hg10 mi
9:54 am51 °FSunny.10 mph54%29.88 "Hg10 mi
8:54 am48 °FSunny.7 mph61%29.87 "Hg10 mi
7:54 am45 °FSunny.8 mph65%29.85 "Hg10 mi
6:54 am44 °FClear.5 mph68%29.83 "Hg10 mi
5:54 am47 °FClear.8 mph59%29.81 "Hg10 mi
4:54 am47 °FClear.7 mph61%29.83 "Hg10 mi
3:54 am47 °FClear.9 mph59%29.80 "Hg10 mi
2:54 am48 °FClear.12 mph56%29.83 "Hg10 mi
1:54 am49 °FClear.9 mph55%29.82 "Hg10 mi
12:54 am51 °FClear.18 mph50%29.84 "Hg10 mi
11:54 pm
Wed, Oct 16
52 °FClear.13 mph53%29.83 "Hg10 mi
10:54 pm54 °FClear.13 mph53%29.81 "Hg10 mi
Weather by CustomWeather, © 2019

See weather overview